{"data":{"norad_id":67950,"epoch":"2026-09-19T11:29:01.162752Z","epoch_age_seconds":151366,"freshness":"FRESH","line1":"1 67950U 26037U   26262.47848568  .00003169  00000+0  12455-3 0  9991","line2":"2 67950  43.0008 176.7134 0000606 302.7600  57.3194 15.27597812 32970","mean_motion":15.27597812,"eccentricity":6.06e-5,"inclination_deg":43.0008,"raan_deg":176.7134,"arg_perigee_deg":302.76,"mean_anomaly_deg":57.3194,"bstar":0.00012455,"rev_number":3297,"period_min":94.265649550433,"perigee_km":482.57997637675,"apogee_km":483.41154566739,"semimajor_km":6861.1327610221,"source":"CELESTRAK","updated_at":"2026-09-20T09:00:43.710562Z"}}